Tampa Macdill AFB, FL

10:13 PM EST on December 10, 2017 (GMT -0500)
MacDill Air Force Base

Weather History for KMCF - January, 2014

Change the Weather History Date:

Thursday, January 30, 2014

  Actual Average Record
Temperature  
Mean Temperature 46 °F -  
Max Temperature 50 °F 68 °F 86 °F (2002)
Min Temperature 42 °F 50 °F 39 °F (2007)
Degree Days  
Heating Degree Days 19    
Moisture  
Dew Point 47 °F    
Average Humidity 99    
Maximum Humidity 100    
Minimum Humidity 93    
Precipitation  
Precipitation 0.09 in - - ()
Sea Level Pressure  
Sea Level Pressure 30.15 in    
Wind  
Wind Speed 7 mph (NE)    
Max Wind Speed 13 mph    
Max Gust Speed -    
Visibility 10 miles    
Events Rain    
Averages and records for this station are not official NWS values.
T = Trace of Precipitation, MM = Missing Value Source: NWS Daily Summary

Daily Weather History Graph

Daily Weather History Graph

Search for Another Location

Airport or City:

Trip Planner

Search our weather history database for the weather conditions in past years. The results will help you decide how hot, cold, wet, or windy it might be!

Date:

Astronomy

Jan. 30, 2014 Rise Set
Actual Time 7:17 AM EST 6:09 PM EST
Civil Twilight 6:53 AM EST 6:33 PM EST
Nautical Twilight 6:25 AM EST 7:01 PM EST
Astronomical Twilight 5:57 AM EST 7:29 PM EST
Moon 6:46 AM EST (1/30) 6:14 PM EST (1/30)
Length of Visible Light 11h 40m
Length of Day
10h 51m
Waning Crescent, 0% of the Moon is Illuminated
Jan 30
Waning Crescent
Jan 30
New
Feb 6
First Quarter
Feb 14
Full
Feb 22
Last Quarter

Hourly Weather History & Observations

Time (EST) Temp. Windchill Dew Point Humidity Pressure Visibility Wind Dir Wind Speed Gust Speed Precip Events Conditions
12:23 AM 46.4 °F 42.9 °F 44.6 °F 93% 30.18 in 10.0 mi NNE 6.9 mph - N/A Rain Light Rain
12:40 AM 46.4 °F 42.4 °F 44.6 °F 93% 30.18 in 10.0 mi NE 8.1 mph - N/A   Overcast
12:50 AM 44.6 °F 40.7 °F 44.6 °F 100% 30.17 in 10.0 mi NE 6.9 mph - N/A   Overcast
12:58 AM 45.3 °F 41.6 °F 45.0 °F 99% 30.18 in 10.0 mi NE 6.9 mph - 0.00 in   Overcast
1:18 AM 44.6 °F 41.4 °F 44.6 °F 100% 30.16 in 10.0 mi NNE 5.8 mph - N/A   Overcast
1:46 AM 44.6 °F 42.2 °F 44.6 °F 100% 30.16 in 10.0 mi NNE 4.6 mph - N/A   Light Drizzle
1:51 AM 44.6 °F 41.4 °F 44.6 °F 100% 30.16 in 10.0 mi NNE 5.8 mph - N/A Rain Light Rain
1:58 AM 45.3 °F 43.0 °F 45.1 °F 99% 30.18 in 10.0 mi North 4.6 mph - 0.00 in Rain Light Rain
2:23 AM 44.6 °F 40.7 °F 44.6 °F 100% 30.17 in 10.0 mi NNE 6.9 mph - N/A Rain Rain
2:48 AM 44.6 °F 40.7 °F 44.6 °F 100% 30.14 in 10.0 mi NE 6.9 mph - N/A Rain Light Rain
3:18 AM 44.6 °F 40.2 °F 44.6 °F 100% 30.14 in 10.0 mi NE 8.1 mph - N/A Rain Light Rain
3:58 AM 44.8 °F 40.4 °F 44.4 °F 99% 30.15 in 10.0 mi NNE 8.1 mph - 0.04 in Rain Light Rain
4:33 AM 44.6 °F 41.4 °F 44.6 °F 100% 30.14 in 10.0 mi NNE 5.8 mph - N/A Rain Light Rain
4:58 AM 45.0 °F 41.8 °F 44.6 °F 99% 30.15 in 10.0 mi NE 5.8 mph - 0.03 in Rain Rain
5:03 AM 44.6 °F 41.4 °F 44.6 °F 100% 30.14 in 10.0 mi NE 5.8 mph - N/A Rain Light Rain
5:23 AM 44.6 °F 40.7 °F 44.6 °F 100% 30.14 in 10.0 mi NE 6.9 mph - N/A Rain Light Rain
5:28 AM 44.6 °F 39.7 °F 44.6 °F 100% 30.14 in 10.0 mi NE 9.2 mph - N/A Rain Light Rain
5:38 AM 44.6 °F 39.7 °F 44.6 °F 100% 30.14 in 10.0 mi NE 9.2 mph - N/A Rain Light Rain
5:58 AM 44.6 °F 40.7 °F 44.4 °F 99% 30.15 in 10.0 mi NE 6.9 mph - 0.01 in   Light Drizzle
5:59 AM 44.6 °F 40.7 °F 44.6 °F 100% 30.15 in 10.0 mi NE 6.9 mph - N/A   Overcast
6:19 AM 44.6 °F 40.2 °F 44.6 °F 100% 30.15 in 10.0 mi NNE 8.1 mph - N/A   Overcast
6:39 AM 44.6 °F 42.2 °F 44.6 °F 100% 30.16 in 10.0 mi NNE 4.6 mph - N/A   Overcast
6:44 AM 44.6 °F 41.4 °F 44.6 °F 100% 30.17 in 10.0 mi NE 5.8 mph - N/A   Overcast
6:54 AM 44.6 °F 41.4 °F 42.8 °F 93% 30.16 in 10.0 mi NE 5.8 mph - N/A   Overcast
6:58 AM 43.9 °F 40.5 °F 43.7 °F 99% 30.17 in 10.0 mi NE 5.8 mph - 0.00 in   Overcast
7:03 AM 44.6 °F 40.7 °F 42.8 °F 93% 30.16 in 10.0 mi NE 6.9 mph - N/A   Overcast
7:08 AM 44.6 °F 41.4 °F 42.8 °F 93% 30.15 in 10.0 mi NE 5.8 mph - N/A   Overcast
7:38 AM 44.6 °F 41.4 °F 44.6 °F 100% 30.17 in 10.0 mi NE 5.8 mph - N/A   Overcast
7:58 AM 44.1 °F 39.5 °F 43.9 °F 99% 30.16 in 10.0 mi NE 8.1 mph - N/A   Overcast
8:03 AM 44.6 °F 40.2 °F 44.6 °F 100% 30.15 in 10.0 mi NE 8.1 mph - N/A   Overcast
8:23 AM 44.6 °F 41.4 °F 44.6 °F 100% 30.17 in 10.0 mi NNE 5.8 mph - N/A   Overcast
8:27 AM 44.6 °F 40.2 °F 44.6 °F 100% 30.18 in 10.0 mi NNE 8.1 mph - N/A   Light Drizzle
8:36 AM 44.6 °F 40.7 °F 44.6 °F 100% 30.18 in 10.0 mi NNE 6.9 mph - N/A   Overcast
8:58 AM 43.7 °F 39.1 °F 43.5 °F 99% 30.18 in 10.0 mi NE 8.1 mph - 0.00 in   Overcast
9:11 AM 42.8 °F 36.2 °F 42.8 °F 100% 30.18 in 10.0 mi NE 12.7 mph - N/A Rain Light Rain
9:21 AM 42.8 °F 37.0 °F 42.8 °F 100% 30.19 in 10.0 mi NE 10.4 mph - N/A Rain Light Rain
9:26 AM 42.8 °F 38.6 °F 42.8 °F 100% 30.19 in 10.0 mi NE 6.9 mph - N/A Rain Light Rain
9:30 AM 42.8 °F 38.0 °F 42.8 °F 100% 30.19 in 10.0 mi NE 8.1 mph - N/A   Overcast
9:39 AM 44.6 °F 40.7 °F 42.8 °F 93% 30.19 in 10.0 mi NE 6.9 mph - N/A Rain Light Rain
9:53 AM 44.6 °F 39.7 °F 42.8 °F 93% 30.19 in 10.0 mi ENE 9.2 mph - N/A   Overcast
9:58 AM 43.9 °F 37.5 °F 43.7 °F 99% 30.20 in 10.0 mi ENE 12.7 mph - 0.00 in   Overcast
10:01 AM 44.6 °F 38.4 °F 44.6 °F 100% 30.19 in 10.0 mi NE 12.7 mph - N/A Rain Light Rain
10:06 AM 44.6 °F 39.2 °F 44.6 °F 100% 30.19 in 10.0 mi ENE 10.4 mph - N/A Rain Light Rain
10:36 AM 44.6 °F 40.7 °F 44.6 °F 100% 30.20 in 10.0 mi NE 6.9 mph - N/A Rain Light Rain
10:46 AM 44.6 °F 40.7 °F 44.6 °F 100% 30.20 in 10.0 mi NNE 6.9 mph - N/A   Overcast
10:56 AM 44.6 °F 42.2 °F 44.6 °F 100% 30.21 in 10.0 mi NE 4.6 mph - N/A   Overcast
10:58 AM 45.1 °F 42.8 °F 44.8 °F 99% 30.22 in 10.0 mi NE 4.6 mph - 0.00 in   Overcast
11:08 AM 44.6 °F 40.2 °F 44.6 °F 100% 30.21 in 10.0 mi NE 8.1 mph - N/A   Overcast
11:10 AM 46.4 °F 42.4 °F 44.6 °F 93% 30.20 in 10.0 mi NNE 8.1 mph - N/A Rain Light Rain
11:58 AM 46.4 °F 41.9 °F 46.2 °F 99% 30.18 in 10.0 mi ENE 9.2 mph - 0.01 in Rain Light Rain
12:03 PM 46.4 °F 41.1 °F 46.4 °F 100% 30.17 in 10.0 mi ENE 11.5 mph - N/A Rain Light Rain
12:08 PM 46.4 °F 41.1 °F 46.4 °F 100% 30.16 in 10.0 mi ENE 11.5 mph - N/A Rain Light Rain
12:18 PM 48.2 °F - 48.2 °F 100% 30.17 in 10.0 mi NNE 6.9 mph - N/A Rain Light Rain
12:33 PM 48.2 °F - 48.2 °F 100% 30.16 in 10.0 mi NNE 5.8 mph - N/A   Light Drizzle
12:34 PM 48.2 °F - 48.2 °F 100% 30.16 in 10.0 mi NNE 5.8 mph - N/A   Overcast
12:39 PM 48.2 °F - 48.2 °F 100% 30.16 in 10.0 mi NNE 8.1 mph - N/A   Overcast
12:49 PM 48.2 °F - 48.2 °F 100% 30.15 in 10.0 mi NNE 5.8 mph - N/A   Overcast
12:58 PM 48.4 °F - 48.2 °F 99% 30.16 in 10.0 mi NNE 5.8 mph - 0.00 in   Overcast
1:08 PM 48.2 °F - 48.2 °F 100% 30.14 in 10.0 mi NNE 8.1 mph - N/A   Overcast
1:12 PM 48.2 °F - 48.2 °F 100% 30.14 in 10.0 mi NNE 6.9 mph - N/A Rain Light Rain
1:35 PM 48.2 °F - 48.2 °F 100% 30.13 in 10.0 mi NE 8.1 mph - N/A   Overcast
1:58 PM 48.9 °F - 48.6 °F 99% 30.13 in 10.0 mi NE 8.1 mph - 0.00 in   Overcast
2:58 PM 50.0 °F - 50.0 °F 100% 30.13 in 10.0 mi NE 9.2 mph - N/A   Overcast
3:13 PM 50.0 °F - 50.0 °F 100% 30.11 in 10.0 mi NNE 5.8 mph - N/A   Overcast
3:43 PM 50.0 °F - 50.0 °F 100% 30.11 in 10.0 mi NE 9.2 mph - N/A   Overcast
3:44 PM 50.0 °F - 50.0 °F 100% 30.11 in 10.0 mi NE 8.1 mph - N/A   Light Drizzle
3:55 PM 50.0 °F - 50.0 °F 100% 30.11 in 10.0 mi NE 8.1 mph - N/A   Overcast
3:58 PM 49.8 °F - 49.5 °F 99% 30.12 in 10.0 mi ENE 10.4 mph - 0.00 in   Overcast
4:43 PM 50.0 °F - 50.0 °F 100% 30.12 in 10.0 mi NE 5.8 mph - N/A   Overcast
4:58 PM 50.0 °F - 49.8 °F 99% 30.13 in 10.0 mi ENE 9.2 mph - N/A   Overcast
5:13 PM 50.0 °F - 50.0 °F 100% 30.12 in 10.0 mi ENE 9.2 mph - N/A   Overcast
5:29 PM 50.0 °F - 50.0 °F 100% 30.12 in 10.0 mi NE 8.1 mph - N/A   Overcast
5:58 PM 49.6 °F - 49.3 °F 99% 30.15 in 10.0 mi ENE 8.1 mph - N/A   Overcast
6:04 PM 50.0 °F - 50.0 °F 100% 30.14 in 10.0 mi ENE 6.9 mph - N/A   Overcast
6:08 PM 50.0 °F - 50.0 °F 100% 30.13 in 8.0 mi ENE 10.4 mph - N/A   Overcast
6:18 PM 50.0 °F - 50.0 °F 100% 30.13 in 8.0 mi ENE 10.4 mph - N/A   Overcast
6:28 PM 50.0 °F - 50.0 °F 100% 30.13 in 10.0 mi ENE 11.5 mph - N/A   Overcast
6:58 PM 49.6 °F - 49.5 °F 99% 30.15 in 10.0 mi NE 6.9 mph - N/A   Overcast
7:23 PM 50.0 °F - 50.0 °F 100% 30.12 in 10.0 mi ENE 8.1 mph - N/A   Overcast
7:58 PM 49.6 °F - 49.5 °F 99% 30.14 in 10.0 mi NE 5.8 mph - N/A   Overcast
8:23 PM 50.0 °F - 50.0 °F 100% 30.13 in 10.0 mi ENE 11.5 mph - N/A   Overcast
8:38 PM 50.0 °F - 50.0 °F 100% 30.13 in 10.0 mi ENE 10.4 mph - N/A   Overcast
8:58 PM 50.2 °F - 50.0 °F 99% 30.14 in 10.0 mi ENE 10.4 mph - N/A   Overcast
9:28 PM 50.0 °F - 50.0 °F 100% 30.13 in 10.0 mi ENE 8.1 mph - N/A   Overcast
9:58 PM 50.4 °F - 50.0 °F 99% 30.13 in 10.0 mi ENE 11.5 mph - N/A   Overcast
10:03 PM 50.0 °F - 50.0 °F 100% 30.12 in 10.0 mi East 12.7 mph - N/A   Overcast
10:18 PM 50.0 °F - 50.0 °F 100% 30.13 in 10.0 mi NE 8.1 mph - N/A   Overcast
10:43 PM 50.0 °F - 50.0 °F 100% 30.11 in 10.0 mi East 9.2 mph - N/A   Overcast
10:48 PM 50.0 °F - 50.0 °F 100% 30.11 in 10.0 mi East 10.4 mph - N/A   Overcast
10:58 PM 50.4 °F - 50.2 °F 99% 30.12 in 10.0 mi East 8.1 mph - N/A   Overcast
11:18 PM 50.0 °F - 50.0 °F 100% 30.12 in 10.0 mi East 6.9 mph - N/A   Overcast
11:28 PM 50.0 °F - 50.0 °F 100% 30.12 in 10.0 mi East 9.2 mph - N/A   Overcast
11:38 PM 50.0 °F - 50.0 °F 100% 30.13 in 10.0 mi NE 2.3 mph - N/A   Mostly Cloudy
11:58 PM 50.4 °F - 50.2 °F 99% 30.13 in 10.0 mi ENE 4.6 mph - N/A   Mostly Cloudy